Wetbulb
51.02 49.04 47.34 49.42 51.90 49.16 50.16 49.81 53.02 53.57 55.95 55.03 54.63 55.20 56.61 58.72 59.03 58.82 59.57 60.03 60.29 60.34 61.48 62.35 61.40 61.19 58.28 59.05 58.80 58.42 57.68 57.66 56.55 55.34 54.25 54.23 53.33 54.00 53.35 53.02 53.18 52.59 52.00 52.02
49.52 47.57 50.20 49.74 48.43 48.01 48.72 48.63 51.27 54.17 56.11 55.17 54.66 53.68 56.31 57.66 58.35 59.57 59.52 59.55 60.11 60.82 61.45 61.26 59.96 58.20 58.50 58.39 57.85 57.15 56.33 55.71 54.97 54.36 54.18 54.06 53.76 53.28 51.94 51.61 51.61 51.80 51.15 50.62
47.99 48.68 49.95 49.26 47.20 47.60 48.55 49.93 51.94 52.47 54.03 55.46 54.13 51.22 53.20 57.06 59.01 59.88 60.71 61.23 61.52 61.25 60.83 59.46 58.11 58.31 58.15 57.02 56.49 55.96 55.52 55.02 54.35 54.29 53.49 53.10 52.39 51.37 49.64 49.65 49.56 50.40 50.80 49.59
48.88 50.55 48.99 49.00 48.07 49.55 48.56 50.67 54.34 52.72 52.13 48.55 53.83 47.66 51.39 54.87 56.21 57.99 59.56 60.44 60.45 59.37 58.74 58.52 57.77 57.23 57.19 56.59 56.60 55.57 54.77 54.21 53.74 53.98 52.45 51.02 48.44 46.95 48.43 48.81 49.72 49.81 50.99 50.38
47.55 48.92 48.87 48.58 49.68 51.09 52.26 54.47 54.97 53.94 52.35 51.67 50.32 48.64 50.15 54.30 53.48 56.31 58.74 58.61 57.79 57.41 57.65 56.73 56.73 56.63 56.37 56.58 55.51 54.93 54.40 53.75 53.64 53.00 52.16 49.87 48.62 48.71 49.42 49.18 49.39 49.32 49.29 49.98
48.99 50.76 50.72 49.91 53.18 56.68 56.29 54.26 53.84 53.58 52.75 47.52 50.04 49.85 50.63 51.76 53.82 56.16 58.61 56.10 55.12 55.44 55.80 56.19 56.21 55.46 55.00 55.46 55.21 54.46 53.68 53.23 53.53 52.33 51.68 50.43 49.29 49.19 48.71 48.60 47.67 47.56 47.80 48.05
48.16 48.77 50.16 56.64 53.58 55.46 55.61 53.54 47.36 46.42 46.22 45.97 51.34 49.51 52.03 55.64 57.35 57.55 57.95 54.13 54.48 55.19 55.01 54.87 54.54 53.58 53.87 54.16 54.12 53.68 52.69 51.24 52.35 51.76 51.06 50.52 50.31 50.36 49.54 48.65 47.32 47.22 47.37 46.75
45.44 44.57 49.36 51.49 54.21 53.03 53.52 51.51 48.16 41.54 42.83 47.16 51.37 47.93 52.35 55.23 55.23 59.09 57.62 54.81 54.47 54.36 54.92 54.27 52.98 52.73 53.02 53.22 53.45 52.37 50.34 50.34 50.75 50.73 50.42 51.03 51.28 50.05 49.87 49.35 48.08 46.97 47.24 48.20
45.62 47.28 52.00 51.34 52.80 54.97 51.57 48.85 52.16 48.98 48.33 47.88 50.19 51.58 54.46 52.71 52.73 55.01 54.08 53.17 53.07 53.23 53.45 52.29 52.26 52.67 52.60 52.59 52.00 50.45 50.11 50.25 50.43 50.67 50.85 51.36 51.64 51.57 50.98 50.81 49.73 49.38 49.24 49.33
49.69 47.55 51.23 51.53 53.96 53.47 53.29 53.52 49.35 51.29 43.65 41.87 46.48 47.99 50.71 51.33 51.20 52.52 52.21 52.45 52.51 53.21 52.07 51.43 51.90 51.88 52.20 51.27 50.70 50.46 50.30 49.99 50.59 51.05 51.19 51.64 51.92 51.98 52.07 51.29 50.16 50.88 50.52 49.75
52.13 51.17 50.04 51.50 50.52 51.11 50.97 50.75 49.73 51.92 49.94 45.40 44.14 47.92 52.01 55.06 54.11 52.38 52.81 53.07 52.58 52.55 51.73 51.10 51.36 51.66 51.18 50.26 49.82 49.47 49.82 49.97 50.31 50.79 51.61 51.92 51.98 51.64 51.75 50.89 50.62 51.55 51.55 50.28
52.92 52.02 47.64 48.19 52.02 52.32 52.39 51.57 53.12 48.63 46.19 49.06 48.94 48.52 50.28 53.38 55.64 54.05 53.08 53.00 53.19 53.33 51.50 51.15 51.26 51.43 50.48 49.93 49.24 49.49 49.69 49.73 50.43 51.21 51.80 51.85 51.80 51.57 51.16 51.28 51.33 52.42 52.14 50.65
53.97 50.27 46.13 47.02 50.05 51.86 51.09 49.86 50.25 52.11 51.96 47.97 45.73 47.16 50.23 54.74 53.27 53.44 52.19 52.03 52.61 52.71 50.82 50.59 50.77 50.26 49.71 49.51 49.17 49.80 49.91 50.22 51.09 51.37 51.69 52.04 51.39 51.08 51.09 51.58 52.27 52.81 52.38 52.21
56.39 50.37 50.47 46.48 48.79 51.07 49.70 50.61 51.00 51.96 48.87 48.23 48.65 48.14 47.46 50.32 50.91 51.08 51.44 52.17 52.37 51.58 50.59 50.63 50.69 50.27 49.63 50.11 49.17 49.85 50.40 51.01 51.30 51.56 51.51 51.05 51.12 51.12 51.16 51.73 52.21 52.34 51.05 50.67
55.85 49.28 48.40 48.57 49.53 49.96 50.44 50.21 50.25 48.87 50.66 47.67 48.35 48.77 49.88 51.18 51.11 51.15 51.87 52.06 51.39 50.96 50.67 50.17 50.36 50.30 49.78 49.64 49.03 49.57 50.70 50.76 51.47 50.88 50.92 50.87 51.64 51.72 51.55 51.74 51.93 51.99 50.78 49.80
53.31 47.53 48.33 47.15 49.96 50.60 49.08 50.06 50.69 50.36 49.19 47.92 48.24 48.51 50.30 52.77 52.64 50.73 50.91 51.29 51.12 51.25 51.17 50.45 50.42 50.41 49.45 49.22 48.76 48.74 50.09 50.71 51.26 50.77 50.66 51.52 51.68 51.39 51.11 51.46 51.71 50.59 50.76 51.74
51.63 50.03 48.43 44.06 47.44 49.40 46.87 49.82 50.06 50.25 50.42 50.27 47.85 50.97 50.80 49.43 49.87 50.51 51.12 51.72 51.70 52.01 51.61 50.50 50.35 50.72 50.40 49.53 49.61 49.06 50.07 50.97 50.68 50.65 51.03 51.38 51.74 50.94 50.97 51.30 51.56 51.55 49.49 50.21
50.30 49.29 48.67 44.89 46.77 40.81 48.73 51.55 51.69 50.89 51.02 51.27 50.09 50.17 51.45 51.97 52.60 52.94 53.42 52.60 52.36 52.65 52.18 51.39 51.35 51.23 50.85 50.25 49.79 50.01 50.62 50.33 50.48 50.67 50.52 51.07 51.24 50.57 50.83 51.30 51.46 51.62 49.49 48.58
53.54 50.85 45.85 44.70 42.20 46.39 48.90 49.73 50.51 50.81 51.11 52.13 51.67 50.29 50.17 50.97 50.85 49.98 53.00 53.95 53.73 53.75 53.70 52.71 52.53 52.33 51.42 50.39 50.03 49.63 49.63 49.57 49.95 50.23 50.23 50.96 51.19 50.59 50.78 50.87 51.25 50.69 48.72 47.94
53.17 54.08 49.39 44.06 42.63 41.50 49.99 51.49 53.83 53.47 48.46 52.88 52.56 50.34 48.96 50.21 47.01 50.59 52.07 53.39 53.72 54.59 54.17 52.48 52.54 51.95 51.66 51.13 50.78 49.82 49.17 48.78 49.14 50.23 50.26 51.26 51.82 51.41 50.24 48.84 49.04 48.12 47.47 46.88
49.94 49.77 47.51 44.56 45.92 48.54 52.55 52.96 54.20 47.04 50.92 52.86 53.25 51.76 50.81 50.55 52.76 53.69 53.29 53.32 54.70 54.48 52.83 53.20 52.55 51.70 51.96 51.76 50.93 48.99 49.13 48.65 50.25 51.23 51.03 51.39 52.04 51.78 50.73 48.23 48.77 47.69 47.45 48.09
50.02 48.98 48.41 48.09 46.85 45.00 54.26 52.66 50.53 54.64 51.98 53.54 53.16 52.73 52.16 51.62 51.20 52.21 52.98 53.22 53.83 52.35 52.21 52.68 52.25 51.89 51.98 51.36 49.52 49.30 48.80 50.08 51.13 51.57 50.74 51.05 51.73 51.59 48.88 49.19 50.29 47.09 49.04 47.83
48.66 51.44 50.73 52.11 51.92 53.48 54.65 54.22 53.87 52.92 53.45 52.97 53.28 52.97 52.58 51.63 51.34 52.38 52.67 53.32 52.71 52.47 52.57 53.18 52.38 51.82 51.13 51.29 49.70 48.08 50.90 50.90 50.58 50.96 50.87 50.88 51.61 51.90 50.77 47.99 48.98 48.58 48.01 47.96
52.85 53.32 53.84 52.53 52.75 51.69 52.11 52.60 52.45 53.16 53.36 53.46 53.89 52.80 52.51 51.63 51.91 52.14 52.53 53.03 52.53 52.96 52.89 53.24 51.98 51.45 51.43 51.44 49.73 50.00 51.45 51.33 50.82 50.60 50.53 51.30 51.28 50.40 50.40 49.66 49.35 48.37 48.27 49.01
54.46 53.97 52.31 50.83 51.37 50.34 51.31 52.17 53.16 52.51 53.13 52.42 52.83 52.97 52.62 52.58 52.18 52.11 52.31 53.06 53.33 53.33 53.51 53.01 52.42 52.18 51.06 50.47 51.66 52.40 52.43 51.80 50.62 50.99 50.61 51.03 50.96 51.07 48.96 50.03 49.95 50.38 50.97 48.98
54.55 53.78 53.15 52.36 55.81 54.89 52.68 53.27 53.57 52.82 51.99 52.29 51.54 51.15 52.51 53.24 52.17 52.69 52.36 53.69 54.06 53.56 53.33 52.49 52.12 51.44 52.75 53.04 53.59 53.49 52.88 52.24 51.30 50.90 50.83 50.50 50.41 50.70 49.02 48.63 50.74 43.97 42.59 41.83
MSLP
1008.44 1008.36 1008.17 1008.06 1008.34 1008.54 1009.09 1010.06 1011.45 1013.40 1014.24 1015.07 1015.75 1016.61 1017.12 1017.55 1017.71 1017.70 1017.81 1018.16 1018.49 1019.09 1019.79 1020.65 1021.28 1021.80 1022.45 1022.64 1022.75 1022.86 1022.70 1022.57 1022.27 1022.13 1022.09 1021.75 1021.60 1021.60 1021.56 1021.54 1021.52 1021.33 1021.10 1020.74
1008.20 1007.68 1007.77 1008.17 1008.49 1008.51 1009.03 1009.89 1011.89 1013.73 1014.61 1015.16 1016.01 1016.73 1017.27 1017.41 1017.27 1017.25 1017.44 1017.87 1018.35 1019.13 1019.91 1021.04 1021.82 1022.39 1022.73 1022.91 1023.14 1023.30 1023.23 1023.09 1023.03 1022.90 1022.78 1022.64 1022.40 1022.24 1022.30 1022.14 1021.88 1021.62 1021.21 1020.90
1007.42 1007.40 1007.60 1007.78 1008.08 1008.14 1008.28 1008.94 1010.99 1012.26 1014.46 1015.36 1016.01 1016.75 1017.10 1017.37 1017.44 1017.31 1017.55 1017.72 1018.29 1018.99 1019.96 1021.23 1021.98 1022.45 1022.86 1023.20 1023.48 1023.65 1023.58 1023.55 1023.64 1023.49 1023.00 1022.69 1022.46 1022.24 1022.21 1022.04 1021.68 1021.47 1021.18 1020.98
1007.36 1007.23 1007.32 1007.45 1007.46 1007.51 1007.75 1008.65 1010.10 1011.73 1012.71 1013.97 1015.11 1015.02 1016.22 1016.65 1016.94 1017.14 1017.29 1017.74 1018.66 1019.66 1020.71 1021.47 1022.04 1022.55 1023.10 1023.57 1023.91 1024.01 1023.99 1023.98 1023.96 1023.91 1023.37 1023.24 1022.93 1022.81 1022.81 1022.47 1022.26 1021.74 1021.38 1020.96
1006.70 1006.74 1006.81 1006.99 1006.60 1006.98 1008.34 1008.65 1010.00 1011.24 1011.92 1012.75 1014.29 1014.55 1015.09 1016.12 1016.33 1016.69 1017.40 1018.37 1019.36 1020.13 1020.95 1021.60 1022.19 1022.85 1023.50 1023.81 1024.10 1024.30 1024.31 1024.35 1024.34 1024.07 1023.97 1023.71 1023.71 1023.44 1023.11 1022.75 1022.31 1021.82 1021.41 1021.07
1006.57 1006.47 1006.43 1006.29 1006.83 1007.13 1008.55 1009.09 1010.14 1010.81 1011.36 1011.76 1012.97 1013.83 1014.06 1015.20 1015.46 1016.30 1017.47 1018.69 1019.64 1020.49 1021.34 1022.02 1022.71 1023.28 1023.68 1023.91 1024.13 1024.39 1024.52 1024.68 1024.63 1024.57 1024.56 1024.51 1024.26 1023.86 1023.35 1022.97 1022.28 1021.85 1021.44 1021.04
1006.15 1005.90 1006.07 1006.31 1007.33 1008.04 1007.95 1007.94 1009.18 1010.02 1010.63 1011.14 1012.86 1013.44 1013.31 1014.54 1015.28 1015.81 1017.27 1018.90 1019.94 1020.86 1021.59 1022.25 1022.90 1023.33 1023.74 1024.06 1024.29 1024.49 1024.83 1024.95 1025.11 1025.05 1024.93 1024.69 1024.36 1023.99 1023.54 1023.28 1022.82 1022.42 1021.75 1021.34
1005.60 1005.50 1005.48 1005.36 1005.64 1005.87 1007.15 1007.32 1007.92 1008.84 1010.12 1010.96 1012.58 1012.63 1013.50 1015.13 1015.77 1015.92 1017.60 1018.90 1020.14 1021.11 1021.95 1022.53 1023.22 1023.62 1023.95 1024.50 1024.83 1024.92 1025.09 1025.35 1025.44 1025.33 1025.08 1024.71 1024.40 1023.97 1023.65 1023.51 1023.23 1022.87 1022.44 1021.87
1005.41 1005.05 1004.93 1005.02 1005.18 1005.18 1006.88 1007.49 1008.31 1009.27 1010.94 1010.97 1011.77 1012.67 1014.19 1015.45 1016.26 1016.96 1017.89 1019.00 1020.11 1021.24 1022.07 1022.83 1023.57 1023.97 1024.48 1024.88 1025.15 1025.23 1025.42 1025.48 1025.48 1025.31 1025.03 1024.67 1024.47 1024.18 1023.86 1023.53 1023.33 1022.91 1022.52 1022.03
1005.31 1005.17 1004.98 1005.25 1005.06 1005.75 1005.79 1007.23 1008.33 1008.67 1009.76 1010.47 1011.49 1012.34 1012.52 1014.72 1015.92 1017.12 1018.14 1019.04 1020.31 1021.39 1022.33 1023.19 1023.77 1024.42 1024.86 1025.13 1025.33 1025.55 1025.58 1025.47 1025.41 1025.24 1025.00 1024.59 1024.36 1024.10 1023.79 1023.52 1023.31 1022.91 1022.50 1022.24
1005.21 1005.38 1005.40 1005.27 1005.40 1005.41 1006.58 1006.98 1008.02 1008.66 1009.47 1009.62 1010.77 1011.30 1012.74 1013.45 1015.03 1016.50 1017.97 1019.27 1020.32 1021.23 1022.26 1023.25 1024.05 1024.63 1024.97 1025.22 1025.40 1025.56 1025.47 1025.41 1025.37 1025.24 1025.02 1024.66 1024.38 1024.17 1023.95 1023.67 1023.43 1022.98 1022.45 1022.23
1005.48 1005.87 1005.82 1005.97 1006.10 1006.04 1005.90 1006.60 1007.21 1007.68 1009.50 1010.28 1010.92 1011.82 1013.47 1014.11 1015.26 1016.91 1018.12 1019.44 1020.43 1021.30 1022.45 1023.37 1024.04 1024.45 1024.88 1025.32 1025.52 1025.58 1025.58 1025.51 1025.48 1025.35 1025.11 1024.82 1024.57 1024.32 1024.19 1023.90 1023.53 1023.02 1022.50 1022.33
1005.15 1006.19 1006.47 1006.54 1006.51 1006.36 1006.33 1007.20 1007.74 1008.16 1008.97 1009.81 1010.66 1011.94 1013.85 1014.27 1015.85 1017.17 1018.19 1019.44 1020.50 1021.54 1022.57 1023.33 1023.92 1024.30 1024.85 1025.31 1025.59 1025.60 1025.55 1025.61 1025.55 1025.39 1025.15 1024.91 1024.75 1024.56 1024.39 1024.11 1023.64 1023.04 1022.71 1022.22
1005.13 1006.50 1006.36 1006.46 1006.08 1006.04 1006.56 1007.30 1007.86 1007.97 1008.61 1009.69 1010.39 1011.81 1013.80 1014.97 1015.92 1017.27 1018.50 1019.59 1020.48 1021.52 1022.40 1022.99 1023.67 1024.25 1024.80 1025.27 1025.51 1025.66 1025.65 1025.69 1025.61 1025.41 1025.22 1025.16 1025.04 1024.87 1024.61 1024.25 1023.81 1023.36 1023.15 1022.72
1005.77 1006.79 1007.22 1007.12 1006.92 1006.63 1006.74 1007.32 1007.93 1008.21 1008.97 1009.48 1010.51 1011.52 1012.76 1014.37 1015.70 1017.21 1018.46 1019.66 1020.58 1021.41 1022.21 1022.88 1023.52 1024.21 1024.77 1025.16 1025.46 1025.70 1025.71 1025.70 1025.67 1025.44 1025.34 1025.36 1025.28 1025.06 1024.79 1024.42 1023.98 1023.60 1023.32 1022.99
1006.42 1007.55 1007.76 1007.91 1007.82 1007.20 1007.37 1007.93 1008.36 1008.82 1009.51 1010.15 1010.83 1011.67 1013.04 1014.71 1016.29 1017.57 1018.47 1019.43 1020.16 1021.01 1021.84 1022.67 1023.51 1024.09 1024.60 1025.03 1025.39 1025.62 1025.69 1025.74 1025.73 1025.60 1025.50 1025.48 1025.36 1025.09 1024.80 1024.49 1024.18 1023.84 1023.46 1023.01
1006.78 1007.71 1008.29 1008.77 1008.59 1008.00 1008.07 1008.25 1008.53 1008.97 1009.59 1010.06 1010.56 1011.49 1013.33 1015.00 1016.08 1016.93 1018.01 1018.97 1019.69 1020.60 1021.53 1022.45 1023.26 1023.81 1024.39 1024.95 1025.32 1025.49 1025.69 1025.85 1025.75 1025.67 1025.56 1025.48 1025.35 1025.15 1024.95 1024.63 1024.25 1023.90 1023.72 1023.31
1006.99 1008.06 1008.65 1009.56 1009.06 1008.68 1008.32 1008.65 1008.78 1008.85 1009.50 1010.24 1011.07 1012.15 1013.04 1014.23 1015.79 1016.98 1017.87 1018.63 1019.47 1020.42 1021.29 1022.26 1022.99 1023.69 1024.37 1024.84 1025.20 1025.50 1025.75 1025.82 1025.78 1025.62 1025.48 1025.41 1025.30 1025.16 1025.08 1024.78 1024.41 1024.06 1024.01 1023.72
1006.48 1007.60 1009.24 1009.86 1009.50 1009.00 1008.16 1008.50 1008.59 1008.66 1009.17 1009.95 1011.09 1012.50 1013.92 1015.36 1016.65 1017.47 1017.92 1018.63 1019.34 1020.25 1021.16 1022.08 1022.83 1023.49 1024.13 1024.56 1024.96 1025.31 1025.51 1025.65 1025.61 1025.46 1025.38 1025.36 1025.33 1025.12 1024.98 1024.73 1024.60 1024.43 1024.23 1023.89
1007.19 1006.73 1008.23 1009.77 1009.03 1008.31 1007.53 1008.06 1008.50 1008.76 1008.90 1009.71 1011.07 1012.51 1013.92 1015.20 1015.64 1015.57 1017.60 1018.61 1019.49 1020.33 1021.13 1021.99 1022.84 1023.44 1023.87 1024.41 1024.89 1025.09 1025.21 1025.35 1025.29 1025.32 1025.36 1025.36 1025.32 1025.19 1024.99 1025.06 1024.84 1024.74 1024.53 1024.10
1007.40 1007.89 1008.35 1009.06 1008.73 1008.22 1007.98 1008.41 1008.86 1009.31 1009.95 1010.13 1011.18 1012.46 1013.68 1014.33 1015.00 1015.63 1017.22 1018.46 1019.25 1020.08 1021.10 1022.07 1022.82 1023.22 1023.72 1024.31 1024.71 1024.84 1025.01 1025.10 1025.16 1025.32 1025.33 1025.28 1025.24 1025.16 1025.13 1025.07 1024.88 1024.75 1024.46 1024.06
1007.10 1007.86 1008.49 1009.19 1009.00 1008.75 1008.70 1009.30 1009.39 1009.82 1010.37 1010.67 1011.65 1012.72 1013.81 1014.86 1015.69 1016.48 1017.38 1018.42 1019.22 1020.12 1021.16 1021.97 1022.48 1023.06 1023.87 1024.36 1024.58 1024.53 1024.65 1024.89 1025.14 1025.19 1025.13 1025.08 1025.07 1024.97 1025.01 1024.90 1024.64 1024.59 1024.27 1023.98
1007.72 1008.02 1007.88 1008.62 1008.76 1009.11 1009.51 1009.78 1010.16 1010.43 1010.65 1011.36 1012.05 1013.11 1014.10 1014.92 1015.97 1016.76 1017.68 1018.61 1019.33 1020.20 1021.01 1021.85 1022.29 1022.92 1023.66 1024.15 1024.50 1024.54 1024.40 1024.69 1024.92 1024.95 1024.79 1024.77 1024.77 1024.64 1024.66 1024.70 1024.46 1024.27 1024.21 1023.95
1008.00 1008.23 1008.15 1008.78 1009.05 1009.48 1009.85 1010.42 1010.76 1010.88 1011.17 1012.00 1012.72 1013.50 1014.41 1015.13 1016.17 1017.01 1017.98 1018.70 1019.38 1020.16 1020.91 1021.69 1022.37 1022.74 1023.17 1023.73 1024.18 1024.34 1024.31 1024.51 1024.63 1024.58 1024.51 1024.49 1024.39 1024.33 1024.31 1024.22 1024.18 1024.07 1023.91 1023.69
1007.52 1008.15 1008.39 1008.64 1009.25 1009.82 1010.09 1010.48 1010.81 1011.36 1011.95 1012.59 1013.33 1013.93 1014.64 1015.44 1016.29 1017.00 1018.00 1018.76 1019.32 1020.08 1020.86 1021.64 1022.15 1022.53 1023.06 1023.56 1023.75 1024.01 1024.10 1024.29 1024.27 1024.32 1024.28 1024.15 1023.90 1023.94 1024.11 1023.99 1023.94 1023.87 1023.84 1023.67
1007.19 1007.40 1007.55 1007.43 1007.83 1008.78 1009.35 1010.41 1011.17 1011.67 1012.42 1013.02 1013.52 1014.51 1015.33 1015.69 1016.35 1017.23 1018.14 1018.89 1019.47 1020.02 1020.87 1021.63 1022.12 1022.55 1022.69 1023.02 1023.29 1023.70 1024.11 1024.16 1024.15 1024.08 1023.95 1023.99 1023.68 1023.58 1023.89 1023.76 1023.60 1023.75 1023.94 1023.82
Wind_Speed
3 5 11 19 13 4 11 9 13 5 4 9 7 12 12 13 12 11 11 9 8 7 6 8 8 10 9 9 11 11 12 14 11 10 9 8 8 8 9 9 13 12 12 13
4 8 6 8 10 8 8 13 8 8 8 3 10 8 7 12 14 13 11 10 9 9 9 9 9 10 9 9 10 11 12 13 11 8 8 6 8 7 9 9 10 12 13 13
6 3 10 6 7 8 7 8 15 10 9 6 13 5 7 10 11 12 11 11 9 9 10 10 9 9 9 10 10 10 12 12 12 11 8 8 7 8 10 10 11 11 12 13
5 7 8 8 7 9 8 7 17 22 11 5 11 3 10 12 14 12 11 11 7 9 9 9 10 9 9 8 9 10 11 12 11 12 11 13 11 11 10 10 11 11 13 12
4 10 8 7 5 11 6 13 17 14 8 9 10 6 4 10 14 14 9 8 9 9 10 10 10 9 8 7 8 9 10 11 11 12 12 10 11 9 9 10 13 14 13 13
4 1 4 2 7 12 20 22 12 7 3 5 5 4 6 9 15 14 11 9 11 11 11 10 9 8 7 7 8 9 9 10 12 11 11 10 10 11 10 11 12 12 11 11
3 5 4 17 17 8 8 7 4 3 4 3 2 6 2 9 5 13 16 13 12 12 11 9 7 7 6 7 8 8 10 11 10 9 9 9 9 10 10 10 9 12 11 10
6 5 11 10 6 11 14 2 4 7 5 2 2 6 4 2 2 9 15 15 13 12 9 8 6 6 7 6 7 8 9 8 8 8 9 8 9 8 7 8 8 8 8 9
5 2 3 2 5 10 7 7 5 8 2 3 3 2 6 7 7 13 16 16 15 12 10 8 6 6 6 6 7 8 7 7 8 8 7 9 9 10 9 10 9 8 8 9
1 2 3 5 3 13 4 11 5 3 6 5 4 7 9 11 12 14 16 16 15 13 11 8 6 6 5 5 6 6 6 7 7 8 8 8 10 10 9 9 11 11 10 10
5 2 2 2 3 7 7 5 6 5 2 3 3 4 3 14 17 18 17 16 16 14 11 8 7 6 6 5 5 5 6 7 7 7 9 10 9 10 10 10 10 10 10 10
4 3 3 2 2 1 3 4 5 4 6 0 2 1 4 7 15 16 16 15 14 12 11 9 8 7 5 4 4 4 5 6 6 7 8 10 9 10 10 10 10 10 11 10
9 1 4 2 4 3 2 3 4 7 3 6 3 2 5 8 16 15 18 16 14 13 12 9 8 6 5 3 2 2 4 5 6 7 8 9 9 9 9 9 10 11 11 11
6 4 3 6 3 3 6 8 4 2 3 6 4 1 7 11 17 17 17 16 15 14 12 10 8 6 5 3 2 1 3 5 6 6 7 8 8 8 8 9 10 10 10 11
2 5 2 7 3 2 7 9 5 3 7 2 2 4 10 16 18 18 17 16 15 14 12 10 8 7 6 4 3 3 2 4 5 6 7 7 7 7 7 8 9 9 9 8
1 3 1 6 5 5 7 6 9 7 5 3 3 3 2 12 14 16 18 17 16 14 12 10 8 7 6 5 4 3 1 3 4 5 6 6 7 7 7 7 8 9 10 9
4 6 3 2 4 4 5 5 3 4 3 4 4 2 16 16 18 19 18 17 15 14 12 11 9 8 6 5 5 3 2 1 3 4 5 6 6 7 6 6 8 10 10 9
6 4 4 2 2 4 3 2 4 2 4 9 2 8 15 14 14 14 15 16 14 13 12 11 9 8 7 5 5 4 3 2 2 3 5 5 6 6 5 6 8 9 8 9
4 6 5 4 2 5 3 6 7 8 5 13 7 11 10 13 12 8 13 13 13 14 12 10 9 8 7 6 5 4 4 3 2 3 4 5 5 5 5 6 7 7 8 8
7 6 6 4 4 6 1 4 5 4 4 14 12 15 18 17 10 7 17 14 13 13 11 11 10 9 7 6 5 5 5 5 3 2 4 4 5 5 6 6 6 5 5 6
3 3 5 3 3 3 2 8 7 4 2 13 14 16 20 13 2 8 18 15 15 14 13 11 10 9 7 6 6 4 4 5 3 2 3 4 3 5 4 4 4 4 5 6
4 5 3 3 3 6 5 7 7 3 2 9 12 15 16 8 9 16 17 17 17 14 12 11 10 9 7 6 5 4 4 4 3 3 3 4 5 5 3 5 6 4 4 5
3 2 3 5 0 2 1 2 3 2 4 7 12 14 14 14 14 17 16 17 16 14 11 10 9 9 7 7 5 3 2 5 4 4 4 4 5 5 4 5 6 5 3 4
2 2 2 4 4 3 3 2 1 1 4 10 11 17 16 14 17 17 15 15 13 12 11 9 8 8 7 7 5 5 3 5 5 4 4 4 5 5 4 3 4 4 3 3
1 9 6 1 2 2 4 4 6 8 11 12 13 14 14 16 17 17 15 14 12 11 9 8 7 6 6 6 8 6 5 5 4 3 3 4 4 4 5 4 3 3 3 3
6 7 5 3 8 1 4 11 11 13 12 13 15 13 12 16 17 16 14 12 10 10 9 7 7 8 9 8 7 6 5 5 3 2 1 2 4 4 3 3 3 1 2 5
Wind_Direction
125 198 188 189 206 176 157 150 163 156 175 186 201 157 172 182 193 200 201 187 186 168 139 108 90 87 82 69 58 44 41 36 29 24 10 5 2 11 16 12 9 7 4 2
155 228 199 155 170 162 156 146 126 98 143 147 155 145 171 189 205 214 210 200 201 165 155 116 107 98 86 71 57 49 45 41 33 23 17 10 12 13 10 6 10 10 8 7
190 153 150 166 176 181 203 191 167 138 129 120 146 150 195 197 221 222 227 228 215 186 161 135 121 100 84 66 54 51 45 42 34 18 17 20 21 14 9 10 9 4 5 10
227 166 205 179 202 198 216 167 151 141 156 161 215 177 214 202 208 217 227 229 186 125 127 132 120 99 82 72 63 55 47 39 33 23 27 28 21 12 8 3 4 357 357 355
199 178 167 218 238 181 64 140 136 144 107 138 190 253 121 197 212 210 205 160 139 123 132 128 113 97 80 71 62 54 46 38 30 32 27 21 19 9 5 7 6 12 11 1
250 304 207 186 38 109 125 115 104 101 140 236 150 255 184 194 219 203 182 153 139 135 131 121 110 99 84 72 60 47 36 32 28 26 26 22 8 359 2 10 11 10 12 11
221 214 124 119 100 133 164 151 107 157 203 264 63 214 350 188 197 204 175 152 146 145 143 135 125 89 68 55 44 36 26 29 26 21 24 11 359 354 6 7 9 6 5 12
202 198 173 181 185 179 173 158 173 198 204 178 128 237 129 52 298 184 152 147 145 147 141 130 103 82 64 56 46 28 33 32 28 24 14 359 358 2 3 2 351 352 347 355
176 203 122 170 169 156 178 214 92 109 54 205 199 249 180 140 119 145 147 151 153 148 145 129 110 78 73 67 44 34 29 33 27 14 359 359 359 1 360 352 351 353 347 347
214 175 73 161 123 49 175 130 157 135 160 225 218 270 237 191 168 163 161 161 153 151 145 132 117 106 98 67 51 45 30 30 18 12 14 13 15 8 1 0 356 352 351 348
189 294 111 205 7 152 148 158 66 95 315 230 203 223 344 199 180 173 169 165 160 158 148 144 140 133 108 74 47 38 34 23 12 9 5 8 8 10 8 7 0 358 357 352
178 110 86 63 37 248 71 137 158 230 176 89 302 159 348 246 176 168 166 165 162 156 150 153 151 143 120 80 51 55 33 17 13 2 8 13 15 16 13 9 6 359 358 5
175 156 113 98 161 151 112 91 103 102 125 175 244 101 32 141 158 170 165 165 162 155 157 158 156 146 129 107 94 67 30 16 358 357 0 9 15 16 13 6 358 1 3 6
99 110 185 178 173 113 145 136 142 122 180 153 237 168 167 165 165 168 169 165 162 163 166 163 158 154 147 156 156 95 26 8 358 5 14 18 15 10 5 357 2 12 14 8
110 114 116 44 337 127 133 150 154 125 129 288 60 216 184 182 176 173 166 165 165 166 171 168 168 164 165 176 181 199 42 28 12 28 28 21 9 4 356 1 1 4 4 359
339 107 305 63 15 143 110 109 120 114 132 115 166 207 166 155 161 169 173 171 173 172 173 169 173 169 175 190 196 184 120 37 9 17 17 9 3 359 4 0 359 8 1 2
81 131 87 107 358 143 138 161 125 139 174 164 196 99 151 163 178 180 175 179 177 173 172 174 179 174 175 185 185 189 174 340 359 349 359 360 358 3 5 358 3 5 1 356
115 104 73 116 13 220 81 259 234 189 204 197 164 163 180 176 177 175 180 178 173 171 172 176 175 171 175 167 171 172 198 228 320 355 7 4 2 12 1 354 3 2 4 357
67 126 92 160 191 309 194 183 174 195 205 192 177 148 145 137 141 176 186 180 172 171 169 174 173 167 165 172 168 189 193 212 252 359 356 350 345 342 335 342 347 348 357 360
58 81 110 178 170 230 137 152 159 173 256 179 169 159 157 158 184 185 177 171 160 162 161 167 166 159 167 169 175 192 200 209 215 341 340 325 320 324 344 336 327 333 334 327
93 39 114 156 210 265 199 155 172 207 55 168 172 165 167 179 64 120 157 160 158 156 160 161 164 174 173 162 170 184 201 222 195 278 301 299 318 315 329 318 320 320 330 337
140 144 146 131 203 241 147 144 205 52 76 163 166 169 168 130 123 145 149 153 155 156 161 174 176 178 163 169 179 176 206 193 218 264 283 296 304 310 303 302 304 292 326 341
175 259 161 209 208 95 237 0 27 188 133 166 162 162 152 138 144 149 150 157 158 163 172 179 186 173 168 181 197 212 202 191 212 258 275 290 304 304 310 297 302 295 306 334
182 197 110 184 178 236 224 193 152 147 138 154 158 156 155 146 151 149 154 160 163 168 177 178 182 185 184 193 198 216 220 197 211 271 276 290 297 317 314 306 301 285 291 304
74 157 158 172 224 235 214 195 146 117 129 130 141 156 156 149 154 151 158 163 167 172 172 176 185 196 187 198 214 212 206 188 211 256 279 286 289 315 317 334 310 323 315 285
189 165 188 174 169 152 148 153 146 135 138 139 140 145 157 156 150 155 158 164 167 166 160 171 185 193 200 204 208 208 213 183 208 263 292 351 321 355 325 323 326 162 266 267